Weather observations for the past three days for
Rutherfordton, Rutherford County-Marchman Field Airport
Imperial (Metric)
Date Time (edt) Wind (mph) Vis. (mi.) Weather Sky Cond. Temperature (ºF) Relative Humidity Wind Chill (°F) Heat Index (°F) Pressure Precipitation (in)
Air Dwpt 6 hour altimeter (in) sea level (mb) 1 hr 3 hr 6 hr
Max. Min.
25 04:25 N 6 10.00 Fair CLR 68 55.4 64% 30.02 0.0
25 04:05 N 5 10.00 Fair CLR 68 55.4 64% 30.01 0.0
25 03:45 N 5 10.00 Fair CLR 68 55.4 64% 30.01 0.0
25 03:25 N 5 10.00 Fair CLR 69.8 55.4 60% 30 0.0
25 03:05 N 5 10.00 Fair CLR 69.8 55.4 60% 30 0.0
25 02:45 N 3 10.00 Fair CLR 68 57.2 69% 30.01 0.0
25 02:25 Calm 10.00 Fair CLR 68 57.2 69% 30.01 0.0
25 02:05 N 3 10.00 Fair CLR 68 57.2 69% 30.01 0.0
25 01:45 N 3 10.00 Fair CLR 71.6 55.4 57% 30 0.0
25 01:25 N 3 10.00 Fair CLR 71.6 55.4 57% 30 0.0
25 01:05 Calm 10.00 Fair CLR 69.8 57.2 64% 30 0.0
25 00:45 Calm 10.00 Fair CLR 69.8 57.2 64% 30 0.0
25 00:25 Calm 10.00 Fair CLR 71.6 57.2 61% 29.99 0.0
25 00:05 Calm 10.00 Fair CLR 73.4 55.4 53% 29.99 0.0
24 23:45 N 3 10.00 Fair CLR 73.4 55.4 53% 29.99 0.0
24 23:25 Calm 10.00 Fair CLR 71.6 55.4 57% 29.98 0.0
24 23:05 Calm 10.00 Fair CLR 77 55.4 47% 79 29.98 0.0
24 22:45 Calm 10.00 Fair CLR 77 55.4 47% 79 29.97 0.0
24 22:25 N 3 10.00 Fair CLR 77 53.6 44% 78 29.96 0.0
24 22:05 N 3 10.00 Fair CLR 78.8 53.6 42% 79 29.96 0.0
24 21:45 N 6 10.00 Fair CLR 78.8 53.6 42% 79 29.94 0.0
24 21:25 N 3 10.00 Fair CLR 80.6 53.6 39% 80 29.94 0.0
24 21:05 N 5 10.00 Fair CLR 80.6 53.6 39% 80 29.94 0.0
24 20:45 N 5 10.00 Fair CLR 80.6 53.6 39% 80 29.93 0.0
24 20:25 N 3 10.00 Fair CLR 82.4 53.6 37% 81 29.93 0.0
24 20:05 N 6 10.00 Fair CLR 84.2 53.6 35% 83 29.92 0.0
24 19:45 N 5 10.00 Fair CLR 86 53.6 33% 84 29.91 0.0
24 19:25 N 7 10.00 Fair CLR 87.8 53.6 31% 86 29.91 0.0
24 19:05 N 3 10.00 Fair CLR 87.8 53.6 31% 86 29.9 0.0
24 18:45 N 9 G 17 10.00 Fair CLR 89.6 53.6 29% 87 29.89 0.0
24 18:25 N 9 10.00 Fair CLR 89.6 53.6 29% 87 29.89 0.0
24 18:05 N 7 10.00 Fair CLR 91.4 53.6 28% 89 29.89 0.0
24 17:45 N 6 G 16 10.00 Fair CLR 91.4 53.6 28% 89 29.89 0.0
24 17:25 N 10 G 17 10.00 Fair CLR 91.4 55.4 30% 90 29.88 0.0
24 17:05 N 10 10.00 Fair CLR 91.4 53.6 28% 89 29.88 0.0
24 16:45 N 6 10.00 Fair CLR 91.4 55.4 30% 90 29.88 0.0
24 16:25 N 6 10.00 Fair CLR 91.4 55.4 30% 90 29.88 0.0
24 16:05 N 8 10.00 Fair CLR 91.4 55.4 30% 90 29.89 0.0
24 15:45 N 8 10.00 Fair CLR 91.4 55.4 30% 90 29.89 0.0
24 15:25 N 6 10.00 Fair CLR 91.4 55.4 30% 90 29.89 0.0
24 15:05 N 7 10.00 Fair CLR 91.4 55.4 30% 90 29.9 0.0
24 14:45 N 9 10.00 Partly Cloudy SCT070 91.4 55.4 30% 90 29.9 0.0
24 14:25 N 7 10.00 Mostly Cloudy BKN070 91.4 59 34% 91 29.9 0.0
24 14:05 Calm 10.00 Mostly Cloudy BKN060 91.4 59 34% 91 29.91 0.0
24 13:45 E 6 10.00 Mostly Cloudy BKN060 89.6 59 36% 89 29.91 0.0
24 13:25 E 5 10.00 Mostly Cloudy BKN060 89.6 60.8 38% 90 29.91 0.0
24 13:05 Calm 10.00 Mostly Cloudy BKN050 87.8 62.6 43% 88 29.92 0.0
24 12:45 NE 7 10.00 Partly Cloudy SCT050 89.6 60.8 38% 90 29.92 0.0
24 12:25 Calm 10.00 Partly Cloudy SCT050 87.8 62.6 43% 88 29.92 0.0
24 12:05 N 7 10.00 Partly Cloudy SCT048 SCT060 87.8 62.6 43% 88 29.92 0.0
24 11:45 Calm 10.00 Mostly Cloudy SCT045 BKN050 BKN060 86 64.4 49% 87 29.92 0.0
24 11:25 Calm 10.00 Overcast SCT045 OVC050 86 66.2 52% 88 29.91 0.0
24 11:05 Calm 10.00 Mostly Cloudy SCT039 BKN050 86 66.2 52% 88 29.91 0.0
24 10:45 NE 5 10.00 Partly Cloudy SCT039 86 68 55% 89 29.9 0.0
24 10:25 E 3 10.00 Fair CLR 86 68 55% 89 29.9 0.0
24 10:05 E 5 10.00 Fair CLR 84.2 66.2 55% 87 29.9 0.0
24 09:45 NE 5 10.00 Fair CLR 82.4 66.2 58% 85 29.9 0.0
24 09:25 NE 5 10.00 Fair CLR 82.4 66.2 58% 85 29.89 0.0
24 09:05 Calm 10.00 Fair CLR 80.6 68 66% 83 29.89 0.0
24 08:45 Calm 10.00 Fair CLR 80.6 68 66% 83 29.89 0.0
24 08:25 Calm 10.00 Fair CLR 78.8 66.2 65% 81 29.88 0.0
24 08:05 Calm 10.00 Fair CLR 77 68 74% 79 29.87 0.0
24 07:45 Calm 10.00 Fair CLR 77 66.2 69% 79 29.86 0.0
24 07:25 Calm 10.00 Fair CLR 73.4 66.2 78% 29.86 0.0
24 07:05 Calm 10.00 Partly Cloudy SCT090 73.4 66.2 78% 29.86 0.0
24 06:45 Calm 10.00 Mostly Cloudy BKN090 71.6 66.2 83% 29.86 0.0
24 06:25 Calm 10.00 Partly Cloudy SCT090 73.4 64.4 74% 29.85 0.0
24 06:05 E 3 10.00 Fair CLR 71.6 64.4 78% 29.85 0.0
24 05:45 NW 6 10.00 Fair CLR 73.4 64.4 74% 29.85 0.0
24 05:25 W 5 10.00 Fair CLR 73.4 64.4 74% 29.85 0.0
24 05:05 W 6 10.00 Fair CLR 75.2 64.4 69% 77 29.84 0.0
24 04:45 W 9 10.00 Fair CLR 75.2 64.4 69% 77 29.83 0.0
24 04:25 W 6 10.00 Fair CLR 73.4 64.4 74% 29.84 0.0
24 04:05 W 3 10.00 Partly Cloudy SCT100 75.2 64.4 69% 77 29.85 0.0
24 03:45 W 5 10.00 Light Drizzle SCT110 73.4 68 83% 29.85 0.0
24 03:25 NW 3 10.00 Light Rain SCT110 75.2 69.8 83% 75 29.85 0.0
24 03:05 Calm 10.00 Partly Cloudy SCT110 73.4 69.8 89% 29.85 0.0
24 02:45 Calm 10.00 Partly Cloudy SCT120 75.2 68 78% 76 29.85 0.0
24 02:25 Calm 10.00 Partly Cloudy SCT085 SCT120 77 68 74% 79 29.85 0.0
24 02:05 Calm 10.00 Overcast BKN070 OVC080 77 68 74% 79 29.86 0.0
24 01:45 Calm 10.00 Mostly Cloudy BKN070 BKN110 73.4 69.8 89% 29.87 0.0
24 01:25 Calm 10.00 Mostly Cloudy SCT085 BKN110 77 68 74% 79 29.87 0.0
24 01:05 Calm 10.00 Overcast BKN085 OVC110 73.4 69.8 89% 29.86 0.0
24 00:45 Calm 10.00 Mostly Cloudy BKN085 BKN100 77 68 74% 79 29.86 0.0
24 00:25 Calm 10.00 Partly Cloudy SCT100 SCT120 77 69.8 79% 79 29.87 0.0
24 00:05 Calm 10.00 Partly Cloudy SCT100 SCT120 77 69.8 79% 79 29.87 0.0
23 23:45 Calm 10.00 Mostly Cloudy SCT100 BKN120 78.8 68 70% 81 29.88 0.0
23 23:25 Calm 10.00 Overcast OVC110 77 71.6 83% 78 29.88 0.0
23 23:05 Calm 10.00 Mostly Cloudy BKN110 77 69.8 79% 79 29.87 0.0
23 22:45 Calm 10.00 Fair CLR 78.8 69.8 74% 81 29.87 0.0
23 22:25 Calm 10.00 Fair CLR 78.8 69.8 74% 81 29.87 0.0
23 22:05 NW 3 10.00 Fair CLR 80.6 69.8 70% 84 29.87 0.0
23 21:45 Calm 10.00 Fair CLR 80.6 69.8 70% 84 29.87 0.0
23 21:25 Calm 10.00 Fair CLR 80.6 69.8 70% 84 29.87 0.0
23 21:05 W 3 10.00 Fair CLR 82.4 69.8 66% 86 29.86 0.0
23 20:45 Calm 10.00 Fair CLR 84.2 68 58% 87 29.86 0.0
23 20:25 SW 3 10.00 Fair CLR 86 68 55% 89 29.86 0.0
23 20:00 Calm 10.00 Partly Cloudy SCT080 86 68 55% 89 29.85 0.0
23 19:45 Calm 10.00 Mostly Cloudy BKN090 86 68 55% 89 29.85 0.0
23 19:25 Calm 10.00 Partly Cloudy SCT090 86 68 55% 89 29.85 0.0
23 19:05 S 3 10.00 Partly Cloudy SCT070 SCT095 87.8 68 52% 91 29.85 0.0
23 18:45 Calm 10.00 Partly Cloudy SCT070 SCT085 87.8 68 52% 91 29.85 0.0
23 18:25 SW 3 10.00 Partly Cloudy SCT080 87.8 68 52% 91 29.85 0.0
23 18:05 SW 6 10.00 Partly Cloudy SCT080 87.8 66.2 49% 90 29.85 0.0
23 17:45 S 8 10.00 Fair CLR 89.6 64.4 43% 91 29.85 0.0
23 17:25 S 9 10.00 Fair CLR 91.4 64.4 41% 93 29.85 0.0
23 17:05 S 10 10.00 Fair CLR 91.4 64.4 41% 93 29.86 0.0
23 16:45 SW 8 10.00 Fair CLR 91.4 66.2 44% 94 29.87 0.0
23 16:25 SW 7 10.00 Fair CLR 91.4 62.6 38% 92 29.87 0.0
23 16:05 SW 7 10.00 Fair CLR 91.4 64.4 41% 93 29.89 0.0
23 15:45 SW 7 10.00 Fair CLR 91.4 64.4 41% 93 29.89 0.0
23 15:25 SW 7 10.00 Fair CLR 91.4 64.4 41% 93 29.9 0.0
23 15:05 S 8 10.00 Partly Cloudy SCT055 SCT075 SCT100 91.4 66.2 44% 94 29.92 0.0
23 14:45 SW 6 10.00 Mostly Cloudy SCT055 SCT065 BKN100 89.6 66.2 46% 92 29.92 0.0
23 14:20 S 7 10.00 Partly Cloudy SCT055 91.4 64.4 41% 93 29.93 0.0
23 14:05 S 8 10.00 Fair CLR 91.4 66.2 44% 94 29.93 0.0
23 13:45 S 7 10.00 Fair CLR 91.4 64.4 41% 93 29.94 0.0
23 13:25 S 5 10.00 Fair CLR 91.4 64.4 41% 93 29.95 0.0
23 13:05 W 3 10.00 Partly Cloudy SCT050 89.6 66.2 46% 92 29.96 0.0
23 12:45 W 3 10.00 Partly Cloudy SCT047 SCT050 89.6 68 49% 93 29.97 0.0
23 12:25 SW 5 10.00 Partly Cloudy SCT045 SCT050 89.6 68 49% 93 29.97 0.0
23 12:05 Calm 10.00 Fair CLR 87.8 68 52% 91 29.98 0.0
23 11:45 S 6 10.00 Fair CLR 87.8 69.8 55% 93 29.98 0.0
23 11:25 SW 3 10.00 Fair CLR 86 69.8 59% 91 29.99 0.0
23 11:05 SW 3 10.00 Fair CLR 86 69.8 59% 91 29.99 0.0
23 10:45 S 6 10.00 Fair CLR 86 69.8 59% 91 30 0.0
23 10:25 SW 3 10.00 Fair CLR 82.4 69.8 66% 86 30 0.0
23 10:05 S 5 10.00 Fair CLR 82.4 69.8 66% 86 30 0.0
23 09:45 S 3 10.00 Fair CLR 80.6 69.8 70% 84 30 0.0
23 09:25 Calm 10.00 Fair CLR 78.8 71.6 79% 82 30 0.0
23 09:05 S 3 10.00 Fair CLR 78.8 69.8 74% 81 30 0.0
23 08:45 Calm 10.00 Fair CLR 75.2 71.6 89% 75 30.01 0.0
23 08:25 Calm 10.00 Fair CLR 75.2 71.6 89% 75 30.01 0.0
23 08:05 Calm 10.00 Fair CLR 73.4 69.8 89% 30.02 0.0
23 07:45 Calm 10.00 Fair CLR 71.6 69.8 94% 30.02 0.0
23 07:25 Calm 10.00 Fair CLR 71.6 69.8 94% 30.01 0.0
23 07:05 Calm 10.00 Fair CLR 69.8 69.8 100% 30.01 0.0
23 06:45 Calm 10.00 Fair CLR 69.8 69.8 100% 30.02 0.0
23 06:25 Calm 10.00 Fair CLR 68 68 100% 30.02 0.0
23 06:05 Calm 10.00 Fair CLR 69.8 69.8 100% 30.02 0.0
23 05:45 Calm 10.00 Fair CLR 69.8 69.8 100% 30.02 0.0
23 05:25 Calm 10.00 Fair CLR 69.8 69.8 100% 30.02 0.0
23 05:05 Calm 10.00 Fair CLR 69.8 68 94% 30.02 0.0
23 04:45 Calm 10.00 Fair CLR 69.8 68 94% 30.02 0.0
23 04:25 Calm 10.00 Fair CLR 71.6 68 88% 30.03 0.0
23 04:05 Calm 10.00 Partly Cloudy SCT050 71.6 69.8 94% 30.02 0.0
23 03:45 Calm 10.00 Partly Cloudy SCT050 69.8 69.8 100% 30.02 0.0
23 03:25 Calm 10.00 Fair CLR 69.8 69.8 100% 30.03 0.0
23 03:05 Calm 10.00 Fair CLR 71.6 69.8 94% 30.03 0.0
23 02:45 S 5 10.00 Fair CLR 71.6 69.8 94% 30.03 0.0
23 02:25 Calm 10.00 Fair CLR 69.8 69.8 100% 30.03 0.0
23 02:05 Calm 10.00 Fair CLR 69.8 69.8 100% 30.04 0.0
23 01:45 Calm 10.00 Mostly Cloudy SCT060 BKN070 69.8 69.8 100% 30.05 0.0
23 01:25 Calm 10.00 Mostly Cloudy BKN050 71.6 69.8 94% 30.05 0.0
23 01:05 Calm 10.00 Fair CLR 71.6 68 88% 30.05 0.0
23 00:45 Calm 10.00 Fair CLR 71.6 69.8 94% 30.05 0.0
23 00:25 Calm 10.00 Fair CLR 71.6 69.8 94% 30.06 0.0
23 00:05 Calm 10.00 Fair CLR 71.6 68 88% 30.06 0.0
22 23:45 Calm 10.00 Fair CLR 75.2 68 78% 76 30.06 0.0
22 23:25 Calm 10.00 Fair CLR 77 68 74% 79 30.06 0.0
22 23:05 NW 3 10.00 Fair CLR 73.4 69.8 89% 30.06 0.0
22 22:45 Calm 10.00 Fair CLR 75.2 68 78% 76 30.06 0.0
22 22:25 Calm 10.00 Fair CLR 78.8 68 70% 81 30.06 0.0
22 22:05 Calm 10.00 Fair CLR 80.6 68 66% 83 30.05 0.0
22 21:45 Calm 10.00 Fair CLR 80.6 68 66% 83 30.05 0.0
22 21:25 Calm 10.00 Fair CLR 80.6 68 66% 83 30.04 0.0
22 21:05 Calm 10.00 Fair CLR 82.4 66.2 58% 85 30.04 0.0
22 20:45 Calm 10.00 Fair CLR 82.4 66.2 58% 85 30.04 0.0
22 20:25 Calm 10.00 Fair CLR 82.4 66.2 58% 85 30.04 0.0
22 20:05 Calm 10.00 Fair CLR 86 64.4 49% 87 30.03 0.0
22 19:45 Calm 10.00 Fair CLR 86 64.4 49% 87 30.03 0.0
22 19:25 Calm 10.00 Fair CLR 87.8 64.4 46% 89 30.03 0.0
22 19:05 S 3 10.00 Fair CLR 87.8 62.6 43% 88 30.03 0.0
22 18:45 S 6 10.00 Fair CLR 89.6 62.6 41% 90 30.04 0.0
22 18:25 S 5 10.00 Fair CLR 89.6 64.4 43% 91 30.04 0.0
22 18:05 SW 3 10.00 Fair CLR 89.6 64.4 43% 91 30.05 0.0
22 17:45 S 3 10.00 Fair CLR 89.6 62.6 41% 90 30.05 0.0
22 17:25 S 5 10.00 Fair CLR 89.6 64.4 43% 91 30.05 0.0
22 17:05 Calm 10.00 Fair CLR 89.6 66.2 46% 92 30.06 0.0
22 16:45 S 6 10.00 Fair CLR 87.8 64.4 46% 89 30.07 0.0
22 16:25 S 3 10.00 Fair CLR 87.8 64.4 46% 89 30.08 0.0
22 16:05 SW 3 10.00 Fair CLR 89.6 66.2 46% 92 30.09 0.0
22 15:45 S 3 10.00 Fair CLR 87.8 64.4 46% 89 30.09 0.0
22 15:25 SW 3 10.00 Partly Cloudy SCT046 SCT050 87.8 68 52% 91 30.1 0.0
22 15:05 SW 7 10.00 Mostly Cloudy BKN044 BKN070 BKN085 86 68 55% 89 30.11 0.0
22 14:45 S 7 10.00 Partly Cloudy SCT049 SCT070 87.8 66.2 49% 90 30.11 0.0
22 14:25 S 6 10.00 Mostly Cloudy SCT049 BKN070 86 66.2 52% 88 30.12 0.0
22 14:05 Calm 10.00 Partly Cloudy SCT049 SCT070 87.8 64.4 46% 89 30.13 0.0
22 13:45 Calm 10.00 Partly Cloudy SCT049 87.8 64.4 46% 89 30.14 0.0
22 13:25 S 9 10.00 Fair CLR 87.8 66.2 49% 90 30.14 0.0
22 13:05 S 8 10.00 Partly Cloudy SCT050 SCT060 87.8 64.4 46% 89 30.15 0.0
22 12:45 S 8 10.00 Partly Cloudy SCT048 SCT060 86 62.6 46% 87 30.16 0.0
22 12:25 Calm 10.00 Fair CLR 86 62.6 46% 87 30.17 0.0
22 12:05 S 5 10.00 Fair CLR 86 60.8 43% 86 30.17 0.0
22 11:45 S 6 10.00 Fair CLR 86 62.6 46% 87 30.17 0.0
22 11:25 S 5 10.00 Fair CLR 84.2 64.4 51% 86 30.17 0.0
22 11:00 SE 3 10.00 Fair CLR 82.4 64.4 55% 84 30.18 0.0
22 10:45 Calm 10.00 Fair CLR 82.4 64.4 55% 84 30.18 0.0
22 10:25 Calm 10.00 Fair CLR 80.6 64.4 58% 82 30.19 0.0
22 10:05 Calm 10.00 Fair CLR 82.4 64.4 55% 84 30.19 0.0
22 09:45 NW 3 10.00 Fair CLR 80.6 64.4 58% 82 30.19 0.0
22 09:25 Calm 10.00 Fair CLR 78.8 64.4 61% 81 30.19 0.0
22 09:05 Calm 10.00 Fair CLR 78.8 64.4 61% 81 30.19 0.0
22 08:45 Calm 10.00 Fair CLR 77 64.4 65% 79 30.19 0.0
22 08:25 N 3 10.00 Fair CLR 73.4 64.4 74% 30.19 0.0
22 08:05 Calm 10.00 Fair CLR 71.6 64.4 78% 30.19 0.0
22 07:45 Calm 10.00 Fair CLR 68 64.4 88% 30.19 0.0
22 07:25 Calm 10.00 Fair CLR 69.8 62.6 78% 30.19 0.0
22 07:05 Calm 10.00 Fair CLR 68 62.6 83% 30.18 0.0
22 06:45 Calm 10.00 Fair CLR 62.6 62.6 100% 30.19 0.0
22 06:25 Calm 10.00 Fair CLR 62.6 62.6 100% 30.19 0.0
22 06:05 Calm 10.00 Fair CLR 62.6 62.6 100% 30.19 0.0
22 05:45 Calm 10.00 Fair CLR 62.6 62.6 100% 30.19 0.0
22 05:25 Calm 10.00 Fair CLR 62.6 62.6 100% 30.19 0.0
22 05:05 Calm 10.00 Fair CLR 62.6 62.6 100% 30.19 0.0
22 04:45 Calm 10.00 Fair CLR 64.4 64.4 100% 30.19 0.0
Date Time (edt) Wind (mph) Vis. (mi.) Weather Sky Cond. Air Dwpt Max. Min. Relative Humidity Wind Chill (°F) Heat Index (°F) altimeter (in) sea level (mb) 1 hr 3 hr 6 hr
6 hour
Temperature (ºF) Pressure Precipitation (in)